Flag for Germany Weather past 2 weeks in Riesa, Saxony, Germany

Now
41 °F

Overcast.


Feels Like: 36 °F
Forecast: 33 / 44 °F
Wind: 7 mph from West

Location: Dresden-Klotzsche

Current Time: Mar 4, 2015 at 6:00:53 PM

Latest Report: Mar 4, 2015 at 5:00 PM


Visibility: 28 mi

Pressure: 30.23 "Hg

Humidity: 60%

Dew point: 28 °F

Location of RiesaLocation

Historic Weather in Riesa — Graph

°F

Riesa temperature yesterday

Maximum temperature yesterday: 44 °F (at 3:00 PM)
Minimum temperature yesterday: 33 °F (at 12:00 AM)
Average temperature yesterday: 39 °F

Past Weeks' High & Low Weather Summary

 TemperatureHumidityPressure
High53 °F (Feb 20, 3:00 PM)98% (Mar 3, 12:00 AM)30.76 "Hg (Mar 3, 12:00 AM)
Low25 °F (Feb 20, 8:00 AM)34% (Feb 26, 3:00 PM)29.44 "Hg (Feb 21, 2:00 PM)
Average38 °F76%29.99 "Hg
* Reported Feb 17 5:00 PM — Mar 4 4:00 PM, Riesa, Weather by CustomWeather, © 2015

Note: Actual official high and low records may vary slightly from our data, if they occured in-between our weather recording intervals... More about our weather records

Advertising

Riesa weather history for previous 24 hours

 ConditionsComfort  
Time TempWeatherWind HumidityBarometerVisibility
4:00 PM
Wed, Mar 4
42 °FOvercast.8 mph60%30.23 "Hg28 mi
3:00 PM42 °FOvercast.8 mph58%30.22 "Hg28 mi
2:00 PM43 °FScattered clouds.12 mph54%30.20 "Hg28 mi
1:00 PM42 °FScattered clouds.9 mph59%30.21 "Hg25 mi
12:00 PM42 °FScattered clouds.10 mph62%30.21 "Hg22 mi
11:00 AM39 °FScattered clouds.8 mph71%30.20 "Hg22 mi
9:00 AM36 °FPartly sunny.9 mph81%30.18 "Hg17 mi
8:00 AM35 °FScattered clouds.9 mph81%30.15 "Hg17 mi
7:00 AM35 °FOvercast.7 mph87%30.12 "Hg17 mi
6:00 AM35 °FPassing clouds.6 mph86%30.11 "Hg22 mi
5:00 AM35 °FPassing clouds.6 mph89%30.09 "Hg25 mi
3:00 AM36 °FLow clouds.5 mph94%30.04 "Hg10 mi
2:00 AM36 °FLight rain. Low clouds.6 mph93%30.03 "Hg9 mi
1:00 AM37 °FLight rain. Low clouds.7 mph92%30.03 "Hg12 mi
12:00 AM39 °FLight rain. Overcast.8 mph84%30.01 "Hg22 mi
11:00 PM
Tue, Mar 3
44 °FPassing clouds.8 mph55%29.96 "Hg28 mi
9:00 PM43 °FOvercast.7 mph52%30.00 "Hg31 mi
8:00 PM42 °FOvercast.7 mph52%30.02 "Hg37 mi
7:00 PM42 °FOvercast.6 mph54%30.03 "Hg37 mi
6:00 PM43 °FPassing clouds.7 mph53%30.04 "Hg4 mi
Weather by CustomWeather, © 2015

See weather overviewHow to use our weather pages